Regional Weather Roundup
Issued by NWS Raleigh/Durham, NC

Home | Current Version | Previous Version | Text Only | Print | Product List | Glossary On
Versions: 1 2 3 4 5 6 7 8 9 10 11 12 13 14 15 16 17 18 19 20 21 22 23 24 25 26 27
000
ASUS42 KRAH 172210
RWRRAH
NORTH CAROLINA WEATHER ROUNDUP
NATIONAL WEATHER SERVICE RALEIGH NC
500 PM EST SUN DEC 17 2017

NOTE: "FAIR" INDICATES FEW OR NO CLOUDS BELOW 12,000 FEET WITH NO
SIGNIFICANT WEATHER AND/OR OBSTRUCTIONS TO VISIBILITY.

NCZ001-053-055-056-065-067-172300-
WESTERN NORTH CAROLINA

CITY           SKY/WX    TMP DP  RH WIND       PRES   REMARKS
ASHEVILLE      LGT RAIN  48  31  51 CALM      30.14F
JEFFERSON      CLOUDY    38  27  63 CALM      30.11S
MORGANTON      CLOUDY    43  34  71 CALM      30.21S
HICKORY        CLOUDY    45  31  58 CALM      30.18R
RUTHERFORDTON  NOT AVBL
MOUNT AIRY     CLOUDY    44  33  65 CALM      30.18F
BOONE          LGT RAIN  41  22  46 S7        30.14R
$$

NCZ021-022-025-041-071-084-088-172300-
CENTRAL NORTH CAROLINA

CITY           SKY/WX    TMP DP  RH WIND       PRES   REMARKS
CHARLOTTE      CLOUDY    51  34  52 SW3       30.19S
GREENSBORO     CLOUDY    48  28  46 SW6       30.18R
WINSTON-SALEM  LGT RAIN  47  29  49 VRB3      30.19R
RALEIGH-DURHAM CLOUDY    50  31  48 CALM      30.20S
FORT BRAGG     CLOUDY    55  30  39 S3        30.19S
FAYETTEVILLE   CLOUDY    55  32  41 S6        30.20S
BURLINGTON     CLOUDY    51  31  46 SW3       30.19R
LAURINBURG     CLOUDY    54  32  43 SW6       30.22R
$$

NCZ011-015-027-028-043-044-047-080-103-172300-
NORTHEASTERN NORTH CAROLINA

CITY           SKY/WX    TMP DP  RH WIND       PRES   REMARKS
ROCKY MT-WILSO CLOUDY    48  37  65 CALM      30.21S
GREENVILLE     CLOUDY    52  32  46 CALM      30.22F
WASHINGTON     CLOUDY    50  36  59 CALM      30.21F
ELIZABETH CITY MOCLDY    47  42  83 SE6       30.21F
MANTEO         CLOUDY    47  37  67 SW7       30.23F
CAPE HATTERAS  CLOUDY    48  38  68 N3        30.24S
$$

NCZ078-087-090-091-093-098-101-172300-
SOUTHEASTERN NORTH CAROLINA

CITY           SKY/WX    TMP DP  RH WIND       PRES   REMARKS
LUMBERTON      CLOUDY    55  33  43 SW5       30.21R
GOLDSBORO      CLOUDY    52  35  52 CALM      30.19S
KINSTON        CLOUDY    52  37  58 CALM      30.21F
KENANSVILLE    CLOUDY    54  36  50 CALM      30.21F
NEW BERN       PTCLDY    51  38  60 S5        30.22F
CHERRY POINT   CLOUDY    50  41  71 SE5       30.23F
BEAUFORT       PTCLDY    50  43  77 CALM      30.23S
JACKSONVILLE   CLOUDY    51  42  71 SE3       30.22R
WILMINGTON     CLOUDY    56  44  64 SE3       30.22S
$$





USA.gov is the U.S. government's official web portal to all federal, state and local government web resources and services.